DELTA 1 DEB, 14904

Orbit data source: Space-Track

DELTA 1 DEB, 14904 is space debris in SSO originally from a launch on Thu, 29 Jul 1976 UTC launched from the Air Force Western Test Range (AFWTR). Debris objects in space refer to the collection of defunct objects orbiting the Earth. Examples of debris include non-operational satellites, rocket bodies, and fragments generated from explosions, collisions, or faulty payload assembly.

Loading next visibility...
Identifier
14904, 1976-077ES
Orbit
SSO
Country
Flag of USUS
Related business
Manufacturer
Unknown
Mission
Spacecraft
Bus & Motor
Unknown
Mass
Unknown
Launch date (UTC)
1976-07-29 (50 years ago)
Launch vehicle
Unknown
Launch site
Air Force Western Test Range (AFWTR)
Object type
Payload
Rocket body
Debris
Shape & HBR
Unknown shape, 0.1 m
Radar Cross Section
Small (<0.1 m²)

Expand to show TLE details & history
Last TLE update: 1 week ago

TLE from 1 week ago
0 DELTA 1 DEB
1 14904U 76077ES  26095.00259258  .00000401  00000-0  21954-2 0  9996
2 14904 102.7268   8.0783 0003088 105.0653 267.4503 12.73027491583976
Epoch: 2026-04-05T00:03Z
TLE epoch observation values (Epoch: 2026-04-05T00:03:43.998Z)
Latitude
12.13273°
Longitude
171.06154°
Altitude
1,371.553 km
Speed
7.174 km/s
True Right ascension
00h 21m 14s
True Declination
12° 04' 04"
Sunlit
Object was in daylight at epoch
Visualization orbit readout
Latitude
Unknown
Longitude
Unknown
Altitude
Unknown
Speed
Unknown
Apparent Right ascension
Unknown
Apparent Declination
Unknown
Sunlit
N/A
Visualization observer readout
Local Sidereal Time
12:16:36
Azimuth
Unknown
Elevation
Unknown
Doppler factor
Unknown
Orbital elements
Apogee altitude
1,369.601 km
Perigee altitude
1,364.817 km
Semi-major axis
7,745.346 km
Eccentricity
0.00031
Inclination
102.7268°
RAAN
8.0783°
Arg. of periapsis
105.0653°
True anomaly
267.41495°
Mean anomaly
267.4503°
Eccentric anomaly
267.43262°
Mean motion
3.18407 °/min
Orbital period
113.06 mins
BSTAR
0.0021954
Loading maneuver chart data...
Computing Atmospheric mass density...
Loading historical data...
Loading historical data...
Loading historical data...
Loading historical data...
Loading historical data...
Loading historical data...
Loading historical data...

Documentation

Showing up to 5 results
|